Location: NCO
(38.4404°N, 77.1340°W)
Time: 12:29:42
(UTC-04:00)

Amateur Radio Satellites - All Passes

Search period start: 20 July 2017 11:59
Search period end: 21 July 2017 11:59
Location: NCO, 38.4404°N, 77.1340°W

Satellite Date Start Highest point End Downlink Frequencies (MHz)
Time Altitude Azimuth
ESTCUBE 1 20 Jul 12:03:31 12:07:34 31° 97° (E) 12:11:34 437.505/2401.250
POLYITAN 1 20 Jul 12:15:02 12:19:18 89° 94° (E) 12:23:37 437.675
DUCHIFAT 1 20 Jul 12:20:58 12:25:13 83° 76° (ENE) 12:29:29 145.980
NO-84 20 Jul 12:25:12 12:27:41 23° 126° (SE) 12:30:21 435.350 FM
QB50P2 20 Jul 12:27:49 12:32:01 58° 259° (W) 12:36:15 145.880/145.840
EO-79 20 Jul 12:42:03 12:46:07 43° 261° (W) 12:50:13 145.935-145.965
NANOSAT C BR1 20 Jul 12:45:44 12:49:47 43° 261° (W) 12:53:52 145.865
SPROUT 20 Jul 13:09:45 13:13:48 41° 99° (E) 13:17:48 437.525
BUGSAT 1 20 Jul 13:11:42 13:15:57 89° 77° (ENE) 13:20:13 437.445
VELOX 1 20 Jul 13:13:08 13:17:19 38° 98° (E) 13:21:29 145.980
LO-87 20 Jul 13:13:28 13:15:56 18° 291° (WNW) 13:18:23 145.935 - 145.965
Gurwin Techsat 1B 20 Jul 13:23:52 13:28:28 31° 68° (ENE) 13:33:04 435.225
AO-85 20 Jul 13:25:13 13:28:01 18° 112° (ESE) 13:30:46 145.980
50 SAT 20 Jul 13:32:25 13:35:13 23° 96° (E) 13:38:00 437.505
DX 1 20 Jul 13:36:57 13:40:16 21° 95° (E) 13:43:34 434.975-435.025
ESTCUBE 1 20 Jul 13:40:38 13:44:10 23° 292° (WNW) 13:47:41 437.505/2401.250
Oscar 19 20 Jul 13:40:41 13:45:45 69° 74° (ENE) 13:50:52 437.125/150
AO-7 20 Jul 13:56:48 14:02:21 20° 52° (NE) 14:07:55 .
NO-84 20 Jul 14:02:16 14:05:03 27° 325° (NW) 14:08:03 435.350 FM
BEESAT 3 20 Jul 14:12:43 14:16:37 58° 117° (ESE) 14:20:35 437.485
PCSat 20 Jul 14:15:33 14:17:46 12° 42° (NE) 14:19:58 145.827
UKube-1 20 Jul 14:30:07 14:34:23 54° 101° (E) 14:38:36 .
BEESAT 2 20 Jul 14:40:18 14:43:58 36° 115° (ESE) 14:47:41 435.950
SPROUT 20 Jul 14:46:43 14:49:20 16° 294° (WNW) 14:51:56 437.525
VELOX 1 20 Jul 14:50:21 14:53:27 19° 294° (WNW) 14:56:32 145.980
RS-15 20 Jul 14:59:48 15:06:13 16° 96° (E) 15:12:40 29.354- 29.394
Gurwin Techsat 1B 20 Jul 15:03:38 15:08:18 31° 263° (W) 15:13:01 435.225
AO-85 20 Jul 15:04:30 15:08:09 33° 307° (NW) 15:11:44 145.980
50 SAT 20 Jul 15:05:28 15:07:46 17° 291° (WNW) 15:10:04 437.505
DX 1 20 Jul 15:12:33 15:16:28 32° 290° (WNW) 15:20:22 434.975-435.025
ITAMSAT 1 20 Jul 15:20:32 15:25:29 46° 71° (ENE) 15:30:28 435.822/435.867
Oscar 19 20 Jul 15:23:26 15:25:32 12° 269° (W) 15:27:38 437.125/150
BEESAT 20 Jul 15:36:38 15:40:42 27° 96° (E) 15:44:43 436.000
AO-7 20 Jul 15:45:37 15:53:58 89° 73° (ENE) 16:02:25 .
ITUPSAT 1 20 Jul 15:46:00 15:50:19 34° 98° (E) 15:54:37 437.325
MOZHAYETS 4 20 Jul 15:47:28 15:51:17 26° 96° (E) 15:55:04
BEESAT 3 20 Jul 15:52:20 15:54:32 14° 315° (NW) 15:56:47 437.485
PCSat 20 Jul 15:56:40 16:02:07 74° 62° (ENE) 16:07:30 145.827
UKube-1 20 Jul 16:07:53 16:09:55 13° 296° (WNW) 16:11:56 .
BEESAT 2 20 Jul 16:18:52 16:21:50 20° 312° (NW) 16:24:50 435.950
SO-50 20 Jul 16:23:11 16:27:16 32° 51° (NE) 16:31:22 436.795
DOVE 4 20 Jul 16:31:36 16:33:27 12° 61° (ENE) 16:35:20 437.250
O/OREOS (USA 219) 20 Jul 16:34:42 16:39:08 65° 109° (ESE) 16:43:36 437.305
ITAMSAT 1 20 Jul 17:01:19 17:05:08 20° 266° (W) 17:08:57 435.822/435.867
RS-15 20 Jul 17:04:25 17:16:28 75° 116° (ESE) 17:28:48 29.354- 29.394
KKS-1 20 Jul 17:07:34 17:10:43 19° 94° (E) 17:13:51 437.445
BEESAT 20 Jul 17:14:20 17:18:23 28° 292° (WNW) 17:22:25 436.000
LilacSat-2 20 Jul 17:19:44 17:20:52 11° 66° (ENE) 17:21:59 437.200
ITUPSAT 1 20 Jul 17:24:11 17:27:56 24° 293° (WNW) 17:31:41 437.325
MOZHAYETS 4 20 Jul 17:24:31 17:28:22 28° 291° (WNW) 17:32:12
NUDT-PHONESAT 20 Jul 17:32:07 17:32:46 10° 66° (ENE) 17:33:26 437.300
KAITUO 1B 20 Jul 17:37:32 17:39:14 13° 67° (ENE) 17:40:56 145.475/437.950
PCSat 20 Jul 17:42:18 17:44:48 13° 257° (WSW) 17:47:18 145.827
AO-7 20 Jul 17:42:36 17:47:39 17° 269° (W) 17:52:44 .
XW-2F 20 Jul 17:43:03 17:45:44 19° 69° (ENE) 17:48:25 145.980 - 146.000
CUBESAT XI-V 20 Jul 17:44:15 17:48:56 90° 258° (WSW) 17:53:37 437.345
STARS 20 Jul 17:51:58 17:55:31 23° 95° (E) 17:59:00 437.465
SO-50 20 Jul 18:03:47 18:07:36 26° 247° (WSW) 18:11:26 436.795
DOVE 4 20 Jul 18:05:40 18:10:20 75° 259° (WSW) 18:15:22 437.250
XW-2D 20 Jul 18:06:55 18:10:28 41° 74° (ENE) 18:14:01 145.860 - 145.880
CUTE-I 20 Jul 18:09:28 18:14:33 45° 71° (ENE) 18:19:40 437.470
XW-2B 20 Jul 18:16:41 18:20:21 53° 75° (ENE) 18:24:01 145.730 - 145.750
O/OREOS (USA 219) 20 Jul 18:17:01 18:18:59 13° 305° (NW) 18:20:58 437.305
YUBILEINY 20 Jul 18:20:16 18:26:05 20° 79° (E) 18:31:54 435.215
HO-68 20 Jul 18:32:47 18:38:53 31° 63° (ENE) 18:44:59 435.675
XW-2C 20 Jul 18:33:37 18:37:24 87° 259° (W) 18:41:10 145.795 - 145.815
CUTE 1.7 + AOD 2 20 Jul 18:35:52 18:38:13 15° 66° (ENE) 18:40:34 437.475
KKS-1 20 Jul 18:43:15 18:47:22 37° 289° (WNW) 18:51:28 437.445
LilacSat-2 20 Jul 18:51:03 18:54:42 47° 261° (W) 18:58:22 437.200
CUBEBUG 2 20 Jul 18:56:56 18:59:42 16° 66° (ENE) 19:02:28 437.445
SEEDS 20 Jul 18:57:56 19:00:31 16° 67° (ENE) 19:03:06 437.485
NO-84 20 Jul 18:59:09 19:01:48 17° 29° (NNE) 19:04:33 435.350 FM
NUDT-PHONESAT 20 Jul 19:02:38 19:06:12 47° 260° (W) 19:09:47 437.300
KAITUO 1B 20 Jul 19:09:24 19:12:52 37° 262° (W) 19:16:20 145.475/437.950
XW-2F 20 Jul 19:16:33 19:19:41 25° 264° (W) 19:22:49 145.980 - 146.000
RS-15 20 Jul 19:19:03 19:30:08 38° 320° (NW) 19:41:21 29.354- 29.394
STARS 20 Jul 19:28:00 19:31:49 29° 291° (WNW) 19:35:35 437.465
AO-73 20 Jul 19:39:53 19:41:35 12° 64° (ENE) 19:43:16 145.935
XW-2D 20 Jul 19:43:33 19:44:50 11° 268° (W) 19:46:07 145.860 - 145.880
CUTE-I 20 Jul 19:50:46 19:54:46 21° 266° (W) 19:58:48 437.470
AAUSAT CUBESAT 2 20 Jul 19:55:55 19:59:35 33° 72° (ENE) 20:03:16 437.432
UWE-3 20 Jul 20:04:04 20:08:28 45° 73° (ENE) 20:12:48 435.000/436.395/437.385
STRAND 1 20 Jul 20:05:32 20:10:18 38° 98° (E) 20:15:01 437.568
XW-2A 20 Jul 20:08:01 20:11:23 63° 259° (W) 20:14:46 145.665 - 145.685
CUTE 1.7 + AOD 2 20 Jul 20:09:40 20:13:40 43° 262° (W) 20:17:40 437.475
YUBILEINY 20 Jul 20:12:56 20:21:47 79° 278° (W) 20:30:40 435.215
HO-68 20 Jul 20:19:23 20:26:17 49° 260° (W) 20:33:14 435.675
ZACube-1 20 Jul 20:29:37 20:33:56 47° 74° (ENE) 20:38:11 437.345
CUBEBUG 2 20 Jul 20:31:14 20:35:52 53° 260° (W) 20:40:28 437.445
SEEDS 20 Jul 20:32:01 20:35:52 38° 262° (W) 20:39:46 437.485
NO-84 20 Jul 20:35:41 20:39:45 90° 198° (SSW) 20:44:03 435.350 FM
Oscar 11 20 Jul 21:05:04 21:09:22 80° 76° (ENE) 21:13:41 .
AO-73 20 Jul 21:12:50 21:17:17 62° 260° (W) 21:21:40 145.935
Tancredo 1 20 Jul 21:19:44 21:21:52 18° 131° (SE) 21:24:00 437.200
FO-29 20 Jul 21:23:17 21:27:44 17° 87° (E) 21:31:53 435.910
AAUSAT CUBESAT 2 20 Jul 21:32:21 21:35:06 17° 267° (W) 21:37:52 437.432
RS-15 20 Jul 21:39:52 21:47:51 19° 353° (N) 21:55:45 29.354- 29.394
UWE-3 20 Jul 21:42:14 21:45:05 16° 268° (W) 21:47:55 435.000/436.395/437.385
DELFI C3 20 Jul 21:44:30 21:48:18 51° 75° (ENE) 21:52:08 145.870
STRAND 1 20 Jul 21:45:11 21:49:14 24° 294° (WNW) 21:53:15 437.568
EO-88 20 Jul 21:52:46 21:56:09 38° 73° (ENE) 21:59:33 145.990 - 145.960
AO-85 20 Jul 21:57:01 21:59:13 14° 46° (NE) 22:01:29 145.980
ZACube-1 20 Jul 22:07:53 22:10:24 15° 268° (W) 22:12:54 437.345
nSIGHT-1 20 Jul 22:08:30 22:11:10 24° 132° (SE) 22:13:51 .
YUBILEINY 20 Jul 22:15:28 22:20:05 15° 299° (WNW) 22:24:44 435.215
NO-84 20 Jul 22:15:42 22:16:48 11° 239° (WSW) 22:17:54 435.350 FM
M-CUBED/EXP-1 PRIME 20 Jul 22:27:37 22:29:07 11° 96° (E) 22:30:38 437.505
BEESAT 3 20 Jul 22:31:14 22:34:24 22° 49° (NE) 22:37:33 437.485
PRISM 20 Jul 22:32:20 22:35:48 25° 96° (E) 22:39:15 437.425
UNISAT 6 20 Jul 22:38:13 22:42:14 35° 97° (E) 22:46:10 437.425
Tancredo 1 20 Jul 22:54:23 22:57:06 34° 327° (NNW) 22:59:51 437.200
ISS 20 Jul 22:57:19 23:00:34 84° 137° (SE) 23:03:49 437.550
BEESAT 2 20 Jul 22:59:47 23:02:27 17° 47° (NE) 23:05:05 435.950
ESTCUBE 1 20 Jul 23:01:49 23:05:26 25° 68° (ENE) 23:09:03 437.505/2401.250
FO-29 20 Jul 23:06:17 23:13:38 77° 286° (WNW) 23:20:07 435.910
TIGRISAT 20 Jul 23:23:44 23:28:06 73° 284° (WNW) 23:32:20 435.000
EO-88 20 Jul 23:28:44 23:29:59 11° 268° (W) 23:31:14 145.990 - 145.960
AO-85 20 Jul 23:35:45 23:39:58 69° 241° (WSW) 23:44:31 145.980
nSIGHT-1 20 Jul 23:44:32 23:47:28 32° 328° (NNW) 23:50:26 .
LO-87 20 Jul 23:46:36 23:50:09 54° 260° (W) 23:53:44 145.935 - 145.965
RS-15 20 Jul 23:56:32 00:06:29 27° 30° (NNE) 00:16:03 29.354- 29.394
M-CUBED/EXP-1 PRIME 20 Jul 23:59:17 00:03:50 70° 289° (WNW) 00:08:27 437.505
SPROUT 21 Jul 00:01:40 00:05:15 26° 70° (ENE) 00:08:51 437.525
POLYITAN 1 21 Jul 00:02:33 00:05:07 16° 93° (E) 00:07:40 437.675
PRISM 21 Jul 00:07:35 00:10:58 24° 291° (WNW) 00:14:19 437.425
DUCHIFAT 1 21 Jul 00:07:53 00:10:08 14° 92° (E) 00:12:22 145.980
BEESAT 3 21 Jul 00:08:29 00:12:00 30° 246° (WSW) 00:15:28 437.485
VELOX 1 21 Jul 00:08:57 00:12:45 29° 69° (ENE) 00:16:33 145.980
QB50P2 21 Jul 00:14:33 00:18:00 24° 96° (E) 00:21:24 145.880/145.840
UNISAT 6 21 Jul 00:15:38 00:18:39 18° 294° (WNW) 00:21:37 437.425
EO-79 21 Jul 00:28:09 00:31:55 31° 97° (E) 00:35:39 145.935-145.965
NANOSAT C BR1 21 Jul 00:31:28 00:35:12 30° 97° (E) 00:38:54 145.865
DX 1 21 Jul 00:31:43 00:34:21 16° 65° (ENE) 00:36:59 434.975-435.025
ISS 21 Jul 00:35:16 00:37:24 16° 338° (NNW) 00:39:33 437.550
BEESAT 2 21 Jul 00:36:33 00:40:27 47° 244° (WSW) 00:44:18 435.950
ESTCUBE 1 21 Jul 00:38:14 00:42:05 28° 264° (W) 00:45:58 437.505/2401.250
AIST 2D 21 Jul 00:41:03 00:44:30 60° 283° (WNW) 00:47:55 435.315
FO-29 21 Jul 00:53:47 00:57:14 14° 306° (NW) 01:00:34 435.910
BUGSAT 1 21 Jul 00:56:33 00:58:40 14° 92° (E) 01:00:45 437.445
UKube-1 21 Jul 01:22:57 01:26:55 37° 71° (ENE) 01:30:55 .
nSIGHT-1 21 Jul 01:24:31 01:24:40 10° 347° (NNW) 01:24:50 .
50 SAT 21 Jul 01:34:05 01:37:25 61° 259° (W) 01:40:49 437.505
POLYITAN 1 21 Jul 01:37:08 01:41:02 38° 288° (WNW) 01:44:55 437.675
SPROUT 21 Jul 01:37:34 01:41:04 24° 265° (W) 01:44:36 437.525
DUCHIFAT 1 21 Jul 01:42:01 01:45:59 42° 287° (WNW) 01:49:55 145.980
Gurwin Techsat 1B 21 Jul 01:43:06 01:45:24 13° 90° (E) 01:47:41 435.225
VELOX 1 21 Jul 01:45:36 01:49:08 24° 265° (W) 01:52:43 145.980
QB50P2 21 Jul 01:50:12 01:53:41 25° 291° (WNW) 01:57:09 145.880/145.840
Oscar 19 21 Jul 01:54:09 01:58:30 27° 96° (E) 02:02:50 437.125/150
EO-79 21 Jul 02:04:22 02:07:27 20° 292° (WNW) 02:10:30 145.935-145.965
DX 1 21 Jul 02:06:00 02:10:08 44° 261° (W) 02:14:20 434.975-435.025
NANOSAT C BR1 21 Jul 02:07:36 02:10:42 20° 292° (WNW) 02:13:46 145.865
RS-15 21 Jul 02:09:12 02:21:23 77° 57° (ENE) 02:32:51 29.354- 29.394
JUGNU 21 Jul 02:20:32 02:22:11 11° 174° (S) 02:23:49 437.505
BUGSAT 1 21 Jul 02:30:20 02:34:13 41° 287° (WNW) 02:38:02 437.445
BEESAT 21 Jul 02:41:35 02:45:36 28° 68° (ENE) 02:49:39 436.000
O/OREOS (USA 219) 21 Jul 02:46:04 02:50:34 85° 250° (WSW) 02:55:03 437.305
MOZHAYETS 4 21 Jul 02:48:09 02:51:39 22° 68° (ENE) 02:55:09
ITUPSAT 1 21 Jul 02:51:12 02:55:29 34° 70° (ENE) 02:59:48 437.325
UKube-1 21 Jul 03:00:12 03:03:03 17° 266° (W) 03:05:55 .
Gurwin Techsat 1B 21 Jul 03:20:31 03:25:49 72° 287° (WNW) 03:31:06 435.225
Oscar 19 21 Jul 03:33:12 03:37:48 34° 291° (WNW) 03:42:24 437.125/150
ITAMSAT 1 21 Jul 03:35:53 03:39:20 18° 93° (E) 03:42:46 435.822/435.867
Tancredo 1 21 Jul 03:44:12 03:46:20 18° 26° (NNE) 03:48:28 437.200
AO-7 21 Jul 03:49:35 03:56:53 32° 97° (E) 04:04:06 .
ISS 21 Jul 03:51:04 03:52:41 13° 18° (NNE) 03:54:18 437.550
KKS-1 21 Jul 04:04:48 04:07:25 15° 65° (ENE) 04:10:03 437.445
JUGNU 21 Jul 04:08:22 04:10:17 12° 184° (S) 04:12:10 437.505
BEESAT 21 Jul 04:19:10 04:23:17 28° 264° (W) 04:27:24 436.000
RS-15 21 Jul 04:23:15 04:32:30 28° 258° (WSW) 04:41:25 29.354- 29.394
MOZHAYETS 4 21 Jul 04:24:25 04:28:35 34° 263° (W) 04:32:45
ITUPSAT 1 21 Jul 04:29:33 04:33:20 23° 265° (W) 04:37:09 437.325
nSIGHT-1 21 Jul 04:37:03 04:39:42 23° 28° (NNE) 04:42:22 .
CUBESAT XI-V 21 Jul 04:45:44 04:50:18 74° 76° (ENE) 04:54:54 437.345
STARS 21 Jul 04:47:32 04:50:34 18° 66° (ENE) 04:53:36 437.465
PCSat 21 Jul 04:58:10 04:59:19 11° 102° (ESE) 05:00:29 145.827
SRMSAT 21 Jul 05:01:02 05:02:23 11° 173° (S) 05:03:46 437.500
ITAMSAT 1 21 Jul 05:14:02 05:19:04 51° 288° (WNW) 05:24:04 435.822/435.867
Tancredo 1 21 Jul 05:19:03 05:21:57 51° 222° (SW) 05:24:51 437.200
ISS 21 Jul 05:26:29 05:29:43 58° 37° (NE) 05:32:57 437.550
KKS-1 21 Jul 05:39:14 05:43:33 48° 260° (W) 05:47:53 437.445
AO-7 21 Jul 05:41:49 05:49:52 54° 295° (WNW) 05:57:53 .
DOVE 4 21 Jul 06:06:01 06:10:55 37° 96° (E) 06:15:40 437.250
XW-2C 21 Jul 06:10:14 06:10:49 10° 91° (E) 06:11:23 145.795 - 145.815
nSIGHT-1 21 Jul 06:13:09 06:16:12 40° 225° (SW) 06:19:16 .
STARS 21 Jul 06:22:27 06:26:35 39° 261° (W) 06:30:45 437.465
YUBILEINY 21 Jul 06:25:17 06:33:43 49° 76° (ENE) 06:42:03 435.215
LilacSat-2 21 Jul 06:26:12 06:28:55 18° 94° (E) 06:31:36 437.200
CUTE-I 21 Jul 06:28:46 06:32:40 20° 93° (E) 06:36:32 437.470
NUDT-PHONESAT 21 Jul 06:35:12 06:37:31 16° 94° (E) 06:39:50 437.300
PCSat 21 Jul 06:36:27 06:41:53 88° 299° (WNW) 06:47:21 145.827
SO-50 21 Jul 06:38:06 06:40:17 13° 108° (ESE) 06:42:27 436.795
KAITUO 1B 21 Jul 06:42:13 06:45:02 20° 95° (E) 06:47:51 145.475/437.950
SRMSAT 21 Jul 06:48:42 06:50:38 12° 184° (S) 06:52:34 437.500
XW-2F 21 Jul 06:49:26 06:52:49 32° 97° (E) 06:56:12 145.980 - 146.000
ISS 21 Jul 07:04:17 07:05:50 13° 232° (SW) 07:07:22 437.550
XW-2D 21 Jul 07:14:29 07:18:14 79° 100° (E) 07:21:59 145.860 - 145.880
STRAND 1 21 Jul 07:19:46 07:24:41 47° 71° (ENE) 07:29:37 437.568
XW-2B 21 Jul 07:24:24 07:28:10 80° 283° (WNW) 07:31:55 145.730 - 145.750
AO-7 21 Jul 07:38:36 07:40:44 11° 315° (NW) 07:42:52 .
XW-2C 21 Jul 07:41:38 07:45:14 45° 286° (WNW) 07:48:50 145.795 - 145.815
DOVE 4 21 Jul 07:44:01 07:48:21 26° 293° (WNW) 07:52:36 437.250
HO-68 21 Jul 07:48:39 07:55:08 36° 97° (E) 08:01:34 435.675
CUTE 1.7 + AOD 2 21 Jul 07:55:47 07:59:38 33° 97° (E) 08:03:28 437.475
LilacSat-2 21 Jul 08:00:00 08:03:10 26° 289° (WNW) 08:06:19 437.200
CUTE-I 21 Jul 08:07:47 08:12:55 47° 289° (WNW) 08:18:01 437.470
NUDT-PHONESAT 21 Jul 08:08:16 08:11:26 28° 288° (WNW) 08:14:35 437.300
SO-50 21 Jul 08:15:44 08:20:13 59° 304° (NW) 08:24:42 436.795
KAITUO 1B 21 Jul 08:16:01 08:18:57 23° 289° (WNW) 08:21:54 145.475/437.950
SEEDS 21 Jul 08:16:51 08:20:45 36° 98° (E) 08:24:39 437.485
YUBILEINY 21 Jul 08:22:36 08:30:09 34° 275° (W) 08:37:40 435.215
PCSat 21 Jul 08:23:10 08:26:04 14° 316° (NW) 08:28:58 145.827
CUBEBUG 2 21 Jul 08:23:55 08:27:50 34° 97° (E) 08:31:39 437.445
XW-2F 21 Jul 08:24:27 08:26:40 15° 292° (WNW) 08:28:53 145.980 - 146.000
Oscar 11 21 Jul 08:54:51 08:57:33 16° 93° (E) 09:00:14 .
STRAND 1 21 Jul 09:00:28 09:04:04 19° 267° (W) 09:07:41 437.568
AO-73 21 Jul 09:02:44 09:06:12 25° 96° (E) 09:09:37 145.935
XW-2A 21 Jul 09:03:46 09:06:58 46° 286° (WNW) 09:10:10 145.665 - 145.685
AAUSAT CUBESAT 2 21 Jul 09:14:00 09:18:11 78° 100° (E) 09:22:21 437.432
FO-29 21 Jul 09:14:39 09:21:39 46° 67° (ENE) 09:29:01 435.910
PRISM 21 Jul 09:21:03 09:23:27 15° 66° (ENE) 09:25:51 437.425
UWE-3 21 Jul 09:31:23 09:35:34 65° 285° (WNW) 09:39:40 435.000/436.395/437.385
CUTE 1.7 + AOD 2 21 Jul 09:32:13 09:35:12 19° 292° (WNW) 09:38:12 437.475
UNISAT 6 21 Jul 09:35:15 09:39:15 29° 70° (ENE) 09:43:12 437.425
HO-68 21 Jul 09:36:16 09:42:51 41° 294° (WNW) 09:49:25 435.675
SEEDS 21 Jul 09:53:20 09:56:08 18° 293° (WNW) 09:58:57 437.485
ZACube-1 21 Jul 09:55:22 09:59:30 64° 285° (WNW) 10:03:35 437.345
CUBEBUG 2 21 Jul 10:01:12 10:04:11 18° 293° (WNW) 10:07:05 437.445
TIGRISAT 21 Jul 10:20:02 10:24:42 80° 78° (ENE) 10:29:21 435.000
Oscar 11 21 Jul 10:29:48 10:33:49 39° 288° (WNW) 10:37:49 .
AO-73 21 Jul 10:39:02 10:42:18 23° 291° (WNW) 10:45:33 145.935
M-CUBED/EXP-1 PRIME 21 Jul 10:44:08 10:47:34 68° 254° (WSW) 10:51:19 437.505
PRISM 21 Jul 10:54:32 10:58:22 40° 261° (W) 11:02:14 437.425
POLYITAN 1 21 Jul 10:55:20 10:56:24 11° 63° (ENE) 10:57:28 437.675
EO-88 21 Jul 10:56:02 10:59:40 64° 101° (E) 11:03:16 145.990 - 145.960
DELFI C3 21 Jul 10:57:11 11:01:12 75° 283° (WNW) 11:05:11 145.870
FO-29 21 Jul 10:59:57 11:06:38 37° 265° (W) 11:13:46 435.910
QB50P2 21 Jul 11:06:21 11:09:00 16° 66° (ENE) 11:11:38 145.880/145.840
UNISAT 6 21 Jul 11:11:56 11:15:52 26° 264° (W) 11:19:46 437.425
AIST 2D 21 Jul 11:13:46 11:16:56 33° 73° (ENE) 11:20:06 435.315
LO-87 21 Jul 11:16:34 11:18:06 12° 92° (E) 11:19:39 145.935 - 145.965
EO-79 21 Jul 11:19:25 11:22:34 20° 68° (ENE) 11:25:44 145.935-145.965
NANOSAT C BR1 21 Jul 11:22:26 11:25:31 20° 68° (ENE) 11:28:37 145.865
NO-84 21 Jul 11:52:47 11:54:52 17° 124° (SE) 11:57:02 435.350 FM
